Weather in Kachelino

Russia / Republic of Tatarstan     56°03′32″N   49°48′41″E
temp.,
°C
wind,
m/s
gust,
m/s
humid.,
%
clouds,
%
prec.,
mm/h
press.,
hPa
HPBL,
m
20 june, sun
sun2000:00+18w513880 0.0 1019268
03:00+16wnw411930 0.0 1020202
06:00+20nw47790 0.0 1020238
09:00+24nw45655 0.0 1021661
12:00+27nnw35569 0.0 10211551
15:00+27n3460100 0.0 1021832
18:00+24ene367580 0.1 1021209
21:00+20ese3373100 0.1 102239
21 june, mon
mon2100:00+19se377899 0.3 1022136
03:00+17s378845 1.6 1022118
06:00+21wsw358512 1.0 1022175
09:00+25w45704 2.3 1022360
12:00+28w35521 1.3 10221722
15:00+29w45494 1.3 10212047
18:00+26w486748 0.0 1020285
21:00+22w35785 0.0 102181
22 june, tue
tue2200:00+20w389139 0.0 1021130
03:00+19w369360 0.0 102197
06:00+23wnw36785 0.0 1022192
09:00+27wnw45600 0.0 1021582
12:00+30wnw44480 0.0 10211599
15:00+31wnw34415 0.0 10212307
18:00+27w48655 0.0 1020287
21:00+22w47775 0.0 1020112
23 june, wed
wed2300:00+20wnw34854 0.0 102048
03:00+20wnw37880 0.0 1021102
06:00+23wnw47760 0.0 1020215
09:00+27nw56580 0.0 1020653
12:00+29nw45460 0.0 10201607
15:00+30nw45420 0.0 10192099
18:00+28nw35635 0.0 1018156
21:00+23nnw23770 0.0 101827
24 june, thu
thu2400:00+20nne338954 2.0 101947
03:00+20nw2287100 2.6 101830
06:00+22nnw248116 0.1 1018191
09:00+26ne226665 0.1 1018589
12:00+29n225528 0.1 10181381
15:00+30nne23506 0.1 10181647
18:00+27e35695 0.3 1017165
21:00+20ssw239390 2.9 101949